�N����,����,�~����,�C��,���x,�C��,����,���ϕ���,�ő�u�ԕ���,�ő厞����,���˗�,�I�_���x,�n�����x,�ő啗���N��,DTYPE
"18/09/17","00:10",0.0,24.0,88.4,1007.4,327.4,1.0,1.3,337.0,0.00,22.0,24.8,"00:00:16",1
"18/09/17","00:20",0.0,23.7,89.1,1007.6,316.7,0.8,1.6,321.6,0.00,21.8,24.8,"00:16:56",1
"18/09/17","00:30",0.0,23.4,90.1,1007.4,320.7,1.1,1.4,329.6,0.00,21.7,24.9,"00:26:00",1
"18/09/17","00:40",0.0,23.3,91.0,1007.6,298.0,1.0,1.3,332.0,0.00,21.8,24.8,"00:38:16",1
"18/09/17","00:50",0.0,23.2,91.4,1007.8,300.5,1.1,1.7,318.4,0.00,21.8,24.9,"00:43:04",1
"18/09/17","01:00",0.0,23.0,91.8,1007.4,298.1,0.8,1.1,316.3,0.00,21.6,24.7,"00:52:08",1
"18/09/17","01:10",0.0,22.9,92.0,1007.4,303.1,1.1,1.9,313.5,0.00,21.6,24.8,"01:00:02",1
"18/09/17","01:20",0.0,22.9,92.4,1007.6,323.8,1.2,1.8,334.2,0.00,21.6,24.8,"01:11:20",1
"18/09/17","01:30",0.0,22.8,92.7,1007.4,293.5,1.0,1.4,320.6,0.00,21.6,24.7,"01:27:28",1
"18/09/17","01:40",0.0,22.6,92.9,1007.6,318.9,1.2,1.7,309.7,0.00,21.4,24.6,"01:37:12",1
"18/09/17","01:50",0.0,22.8,93.2,1007.6,306.2,1.3,2.4,337.3,0.00,21.7,24.7,"01:45:44",1
"18/09/17","02:00",0.0,23.0,92.9,1007.6,334.6,1.8,2.9,331.2,0.00,21.8,24.7,"01:54:56",1
"18/09/17","02:10",0.0,23.0,92.8,1007.6,336.3,1.7,2.6,331.0,0.00,21.8,24.5,"02:03:28",1
"18/09/17","02:20",0.0,23.1,92.6,1007.8,334.9,1.8,3.2,338.8,0.00,21.9,24.5,"02:13:12",1
"18/09/17","02:30",0.0,23.2,92.2,1007.8,333.9,1.7,2.6,332.4,0.00,21.9,24.6,"02:28:16",1
"18/09/17","02:40",0.0,23.3,92.0,1007.8,327.4,1.3,1.9,334.6,0.00,22.0,24.5,"02:34:08",1
"18/09/17","02:50",0.0,23.3,91.7,1007.6,330.9,1.5,2.8,334.9,0.00,21.9,24.4,"02:43:20",1
"18/09/17","03:00",0.0,23.2,91.6,1007.6,328.7,1.2,2.2,338.4,0.00,21.8,24.5,"02:52:40",1
"18/09/17","03:10",0.0,23.1,91.3,1007.8,322.8,1.1,1.6,324.8,0.00,21.6,24.2,"03:09:52",1
"18/09/17","03:20",0.0,22.9,91.4,1007.8,327.2,1.1,1.8,323.1,0.00,21.5,24.4,"03:11:36",1
"18/09/17","03:30",0.0,22.8,91.5,1008.1,330.5,1.3,1.9,340.3,0.00,21.4,24.3,"03:26:32",1
"18/09/17","03:40",0.0,22.6,91.8,1007.8,331.9,1.3,1.8,338.8,0.00,21.2,24.3,"03:39:20",1
"18/09/17","03:50",0.0,22.5,91.9,1007.6,335.0,1.6,2.5,332.8,0.00,21.2,24.1,"03:45:36",1
"18/09/17","04:00",0.0,22.5,92.2,1008.1,323.7,1.7,2.9,326.5,0.00,21.2,24.1,"03:59:12",1
"18/09/17","04:10",0.0,22.5,92.0,1007.8,316.3,1.5,2.9,333.3,0.00,21.2,24.3,"04:00:08",1
"18/09/17","04:20",0.0,22.4,92.3,1008.1,333.7,1.7,2.2,344.4,0.00,21.1,24.4,"04:19:36",1
"18/09/17","04:30",0.0,22.4,92.2,1008.1,318.8,1.7,2.5,329.0,0.00,21.1,24.4,"04:24:16",1
"18/09/17","04:40",0.0,22.4,92.0,1008.1,312.9,1.6,3.3,332.9,0.00,21.1,24.2,"04:35:52",1
"18/09/17","04:50",0.0,22.3,91.9,1008.3,323.3,1.6,2.2,323.6,0.00,21.0,24.2,"04:42:48",1
"18/09/17","05:00",0.0,22.3,92.1,1008.3,320.1,2.0,3.2,329.9,0.00,21.0,24.2,"04:55:20",1
"18/09/17","05:10",0.0,22.2,92.0,1008.6,290.6,1.2,1.8,314.2,0.00,20.9,24.1,"05:00:16",1
"18/09/17","05:20",0.0,22.3,92.0,1008.1,299.4,1.3,2.2,326.6,0.00,21.0,24.0,"05:14:32",1
"18/09/17","05:30",0.0,22.4,91.8,1008.1,313.8,1.7,2.9,335.6,0.00,21.0,24.2,"05:20:16",1
"18/09/17","05:40",0.0,22.6,91.3,1008.3,322.1,2.1,3.6,340.6,0.00,21.1,24.1,"05:34:56",1
"18/09/17","05:50",0.0,22.5,91.2,1008.6,327.7,1.8,3.1,336.3,0.00,21.0,23.9,"05:41:28",1
"18/09/17","06:00",0.0,22.5,91.2,1008.6,335.5,1.8,3.3,340.7,0.00,21.0,24.0,"05:58:40",1
"18/09/17","06:10",0.0,22.6,91.1,1008.6,331.2,2.2,3.4,329.8,0.00,21.1,23.6,"06:04:08",1
"18/09/17","06:20",0.0,22.5,91.1,1008.3,319.8,1.5,3.3,332.0,0.00,21.0,23.9,"06:10:08",1
"18/09/17","06:30",0.0,22.6,91.3,1008.6,309.7,1.2,2.1,331.6,0.00,21.1,23.8,"06:20:24",1
"18/09/17","06:40",0.0,22.7,90.8,1008.1,318.7,1.1,2.4,323.1,0.00,21.2,23.7,"06:30:16",1
"18/09/17","06:50",0.0,22.9,90.7,1008.6,322.8,0.8,1.4,318.8,0.01,21.3,24.0,"06:48:08",1
"18/09/17","07:00",0.0,22.7,90.7,1008.8,300.3,0.8,1.8,323.4,0.01,21.1,23.8,"06:54:48",1
"18/09/17","07:10",0.0,23.2,91.2,1008.6,288.3,0.8,1.6,340.8,0.03,21.7,23.8,"07:08:00",1
"18/09/17","07:20",0.0,23.8,89.0,1008.8,312.9,1.1,1.9,338.5,0.06,21.9,23.9,"07:18:08",1
"18/09/17","07:30",0.0,24.1,87.3,1009.0,296.9,0.8,1.8,323.9,0.05,21.9,23.9,"07:29:52",1
"18/09/17","07:40",0.0,24.3,86.5,1009.0,319.3,1.2,2.5,330.8,0.07,21.9,24.0,"07:36:08",1
"18/09/17","07:50",0.0,24.9,84.6,1008.6,334.5,1.2,3.3,345.2,0.13,22.2,24.0,"07:49:36",1
"18/09/17","08:00",0.0,24.7,84.6,1008.8,330.6,1.8,3.3,330.3,0.08,22.0,24.1,"07:53:36",1
"18/09/17","08:10",0.0,24.8,84.2,1008.6,306.2,1.1,2.5,335.1,0.09,22.0,24.0,"08:03:04",1
"18/09/17","08:20",0.0,24.7,83.9,1008.6,321.9,1.6,2.8,349.2,0.09,21.8,24.2,"08:13:28",1
"18/09/17","08:30",0.0,24.8,83.5,1008.3,309.7,1.6,4.1,341.2,0.10,21.9,24.3,"08:23:28",1
"18/09/17","08:40",0.0,25.0,83.2,1008.6,316.4,1.2,2.6,334.7,0.09,22.0,24.4,"08:36:32",1
"18/09/17","08:50",0.0,25.5,81.9,1008.3,328.4,1.0,1.9,335.1,0.14,22.2,24.4,"08:48:56",1
"18/09/17","09:00",0.0,26.3,78.6,1008.3,294.0,0.6,1.7,249.9,0.23,22.3,24.5,"08:50:02",1
"18/09/17","09:10",0.0,26.1,78.9,1007.8,275.4,0.7,1.9,209.7,0.20,22.2,24.5,"09:07:28",1
"18/09/17","09:20",0.0,26.6,77.2,1007.6,299.7,0.7,1.8,227.4,0.25,22.3,24.7,"09:11:20",1
"18/09/17","09:30",0.0,26.9,77.5,1007.4,254.7,1.0,2.4,217.8,0.28,22.7,24.9,"09:26:32",1
"18/09/17","09:40",0.0,27.0,75.4,1008.1,235.5,0.8,1.9,224.1,0.31,22.3,24.8,"09:36:00",1
"18/09/17","09:50",0.0,27.0,72.4,1008.1,325.9,1.0,2.2,15.6,0.33,21.7,25.1,"09:45:36",1
"18/09/17","10:00",0.0,26.5,73.8,1007.6,272.6,1.2,3.9,346.3,0.19,21.5,25.1,"09:58:08",1
"18/09/17","10:10",0.0,27.0,75.3,1007.6,330.4,0.6,1.4,332.0,0.19,22.3,25.3,"10:01:20",1
"18/09/17","10:20",0.0,27.5,72.9,1007.8,341.1,1.0,2.6,231.6,0.35,22.2,25.5,"10:19:36",1
"18/09/17","10:30",0.0,27.2,72.9,1007.8,239.1,1.1,4.4,349.7,0.38,22.0,25.5,"10:29:36",1
"18/09/17","10:40",0.0,26.9,73.1,1008.1,279.8,1.1,3.4,337.8,0.25,21.7,25.6,"10:39:28",1
"18/09/17","10:50",0.0,26.8,73.9,1007.4,270.5,1.2,3.2,333.6,0.18,21.8,25.6,"10:49:52",1
"18/09/17","11:00",0.0,27.0,73.6,1007.1,296.0,1.2,3.4,353.4,0.26,21.9,25.9,"10:50:32",1
"18/09/17","11:10",0.0,27.3,73.9,1007.6,279.3,1.3,4.4,338.0,0.31,22.3,26.1,"11:05:28",1
"18/09/17","11:20",0.0,26.8,74.0,1007.4,273.1,1.3,3.9,226.8,0.23,21.8,25.9,"11:17:20",1
"18/09/17","11:30",0.0,27.3,73.4,1006.9,281.1,1.6,3.2,244.0,0.35,22.2,26.2,"11:28:08",1
"18/09/17","11:40",0.0,26.8,72.6,1007.1,293.4,1.3,4.0,340.0,0.24,21.5,26.2,"11:33:44",1
"18/09/17","11:50",0.0,27.1,72.3,1007.1,275.0,1.2,3.5,333.8,0.23,21.7,26.2,"11:46:32",1
"18/09/17","12:00",0.0,27.3,71.8,1006.7,304.3,1.5,3.2,269.0,0.28,21.8,26.2,"11:50:16",1
"18/09/17","12:10",0.0,27.8,70.4,1007.1,315.0,1.7,3.7,340.4,0.42,22.0,26.4,"12:07:44",1
"18/09/17","12:20",0.0,28.4,68.6,1006.9,331.3,1.8,4.3,329.2,0.49,22.1,26.4,"12:19:28",1
"18/09/17","12:30",0.0,27.9,71.9,1007.4,314.1,1.7,4.7,347.2,0.45,22.4,26.6,"12:23:28",1
"18/09/17","12:40",0.0,27.4,71.2,1007.4,331.4,1.3,3.3,354.4,0.24,21.8,26.7,"12:32:16",1
"18/09/17","12:50",0.0,27.9,69.6,1006.9,276.5,1.3,3.9,225.7,0.38,21.9,26.7,"12:46:48",1
"18/09/17","13:00",0.0,27.4,67.9,1006.7,286.6,1.3,4.1,246.0,0.31,21.0,26.9,"12:55:12",1
"18/09/17","13:10",0.0,27.4,68.9,1007.1,294.8,1.7,3.5,261.7,0.19,21.2,27.0,"13:03:52",1
"18/09/17","13:20",0.0,27.6,68.5,1006.4,333.4,1.3,2.8,346.0,0.17,21.3,26.8,"13:14:08",1
"18/09/17","13:30",0.0,27.2,69.6,1006.2,323.0,1.7,4.0,349.2,0.20,21.2,27.0,"13:25:44",1
"18/09/17","13:40",0.0,27.4,70.2,1006.0,300.1,1.2,3.2,343.1,0.20,21.5,27.1,"13:38:08",1
"18/09/17","13:50",0.0,27.1,68.6,1005.7,301.2,1.1,3.1,357.5,0.14,20.9,27.1,"13:46:48",1
"18/09/17","14:00",0.0,27.3,65.7,1006.0,300.4,1.5,3.2,275.0,0.08,20.4,26.9,"13:56:56",1
"18/09/17","14:10",0.0,26.9,67.4,1005.2,301.9,1.3,3.1,356.9,0.03,20.4,27.0,"14:06:16",1
"18/09/17","14:20",0.0,26.6,68.7,1005.7,316.2,1.8,3.5,334.1,0.02,20.4,26.8,"14:11:04",1
"18/09/17","14:30",0.0,26.5,69.6,1006.0,300.6,1.5,2.8,337.8,0.05,20.5,26.7,"14:24:24",1
"18/09/17","14:40",0.0,26.5,70.9,1006.2,323.5,1.7,3.7,337.0,0.06,20.8,26.6,"14:34:40",1
"18/09/17","14:50",0.0,26.6,70.8,1006.0,317.8,1.8,4.2,344.1,0.07,20.9,26.7,"14:46:16",1
"18/09/17","15:00",0.0,26.1,72.1,1006.2,312.1,1.7,4.0,339.4,0.09,20.7,26.5,"14:50:02",1
"18/09/17","15:10",0.0,26.3,71.8,1006.0,308.9,1.7,3.6,335.7,0.09,20.8,26.5,"15:04:56",1
"18/09/17","15:20",0.0,25.8,72.0,1006.4,327.9,2.6,4.7,352.7,0.05,20.4,26.6,"15:12:16",1
"18/09/17","15:30",0.0,25.4,73.5,1006.7,339.3,2.7,4.7,331.8,0.04,20.4,26.5,"15:26:48",1
"18/09/17","15:40",0.0,25.4,74.1,1006.9,335.7,2.7,5.2,345.5,0.05,20.5,26.2,"15:36:40",1
"18/09/17","15:50",0.0,25.4,74.3,1006.9,332.1,3.0,4.9,341.6,0.04,20.5,26.4,"15:43:20",1
"18/09/17","16:00",0.0,24.8,76.1,1006.9,345.7,3.1,5.5,359.3,0.03,20.3,26.0,"15:57:44",1
"18/09/17","16:10",0.0,24.3,77.4,1007.4,342.6,3.0,5.0,339.4,0.01,20.1,26.2,"16:05:44",1
"18/09/17","16:20",0.0,24.1,79.2,1007.6,331.3,2.6,5.4,331.3,0.01,20.3,26.1,"16:11:44",1
"18/09/17","16:30",0.0,23.9,80.8,1007.6,331.9,2.3,5.0,334.1,0.02,20.4,25.9,"16:27:20",1
"18/09/17","16:40",0.0,23.7,81.9,1007.8,313.7,1.8,3.3,349.9,0.01,20.5,25.7,"16:33:44",1
"18/09/17","16:50",0.0,23.6,82.2,1008.1,331.5,2.5,4.4,328.2,0.01,20.4,26.0,"16:49:36",1
"18/09/17","17:00",0.0,23.6,81.8,1007.6,335.4,2.6,5.7,341.7,0.01,20.3,25.8,"16:50:40",1
"18/09/17","17:10",0.0,23.7,81.6,1008.1,325.3,2.2,3.9,344.7,0.02,20.4,25.7,"17:04:00",1
"18/09/17","17:20",0.0,23.5,81.4,1008.1,325.1,2.2,3.7,324.2,0.01,20.2,25.8,"17:14:48",1
"18/09/17","17:30",0.0,23.5,82.2,1007.8,324.1,2.0,3.9,333.5,0.00,20.3,25.7,"17:29:12",1
"18/09/17","17:40",0.0,23.3,81.8,1008.6,332.5,2.6,4.9,325.9,0.00,20.1,25.4,"17:36:08",1
"18/09/17","17:50",0.0,23.4,80.4,1008.3,337.7,2.1,4.3,334.2,0.00,19.9,25.4,"17:41:52",1
"18/09/17","18:00",0.0,23.4,79.6,1008.3,342.4,1.6,3.9,340.4,0.00,19.7,25.3,"17:58:32",1
"18/09/17","18:10",0.0,23.4,79.0,1007.8,357.1,1.3,2.9,350.8,0.00,19.6,25.3,"18:02:00",1
"18/09/17","18:20",0.0,23.3,78.7,1008.1,7.3,1.0,3.4,341.6,0.00,19.4,25.3,"18:17:28",1
"18/09/17","18:30",0.0,23.4,77.7,1008.3,339.1,0.8,2.0,126.3,0.00,19.3,25.0,"18:22:40",1
"18/09/17","18:40",0.0,23.4,77.8,1008.6,340.7,0.8,1.7,346.1,0.00,19.3,25.3,"18:31:36",1
"18/09/17","18:50",0.0,23.2,79.8,1008.3,338.3,1.3,2.5,342.4,0.00,19.6,25.1,"18:49:36",1
"18/09/17","19:00",0.0,22.7,81.9,1008.8,329.9,2.0,3.2,320.5,0.00,19.5,25.3,"18:54:00",1
"18/09/17","19:10",0.0,22.8,82.2,1009.0,314.5,1.7,2.7,327.9,0.00,19.6,25.0,"19:00:16",1
"18/09/17","19:20",0.0,22.7,83.2,1008.8,334.3,2.0,3.1,336.0,0.00,19.7,24.9,"19:13:20",1
"18/09/17","19:30",0.0,22.7,84.2,1008.8,329.1,2.1,3.2,328.5,0.00,19.9,24.9,"19:20:08",1
"18/09/17","19:40",0.0,22.5,84.5,1009.0,325.2,3.0,4.0,318.2,0.00,19.8,24.8,"19:37:44",1
"18/09/17","19:50",0.0,22.5,84.5,1009.5,319.3,2.6,5.7,324.7,0.00,19.8,24.8,"19:41:44",1
"18/09/17","20:00",0.0,22.4,85.0,1009.7,325.0,2.7,4.1,332.1,0.00,19.8,24.9,"19:56:00",1
"18/09/17","20:10",0.0,22.4,85.0,1010.0,320.7,2.6,4.0,337.8,0.00,19.8,24.8,"20:01:04",1
"18/09/17","20:20",0.0,22.3,85.2,1009.7,317.1,2.0,3.4,327.8,0.00,19.7,24.7,"20:13:04",1
"18/09/17","20:30",0.0,22.1,85.6,1010.0,304.7,1.3,2.7,315.1,0.00,19.6,24.7,"20:21:36",1
"18/09/17","20:40",0.0,22.0,85.8,1010.0,293.8,1.2,1.8,308.1,0.00,19.6,24.7,"20:32:40",1
"18/09/17","20:50",0.0,21.9,85.6,1010.0,304.3,1.1,1.6,308.8,0.00,19.4,24.7,"20:43:04",1
"18/09/17","21:00",0.0,21.5,86.7,1010.0,332.1,1.3,1.9,322.6,0.00,19.2,24.6,"20:59:36",1
"18/09/17","21:10",0.0,21.1,88.1,1010.0,306.5,1.2,2.2,335.1,0.00,19.1,24.7,"21:01:28",1
"18/09/17","21:20",0.0,21.0,88.4,1009.7,337.8,1.2,2.1,336.7,0.00,19.0,24.3,"21:10:40",1
"18/09/17","21:30",0.0,21.0,88.6,1009.7,322.9,1.6,3.2,338.1,0.00,19.1,24.4,"21:26:08",1
"18/09/17","21:40",0.0,21.0,88.8,1010.0,303.8,1.3,2.9,328.9,0.00,19.1,24.3,"21:38:56",1
"18/09/17","21:50",0.0,20.9,88.7,1009.7,341.3,1.7,2.6,332.5,0.00,19.0,24.3,"21:40:02",1
"18/09/17","22:00",0.0,20.8,89.1,1009.7,328.8,2.1,2.9,344.0,0.00,19.0,24.2,"21:55:52",1
"18/09/17","22:10",0.0,20.7,89.1,1009.7,332.1,1.8,2.8,335.6,0.00,18.9,24.1,"22:02:00",1
"18/09/17","22:20",0.0,20.6,89.6,1009.3,331.4,1.7,2.8,326.1,0.00,18.9,24.1,"22:10:48",1
"18/09/17","22:30",0.0,20.4,90.2,1009.5,332.6,1.6,2.8,323.4,0.00,18.8,24.1,"22:21:44",1
"18/09/17","22:40",0.0,20.4,90.7,1009.7,334.6,1.5,2.1,333.4,0.00,18.9,24.1,"22:32:00",1
"18/09/17","22:50",0.0,20.4,90.8,1010.2,341.0,1.7,2.9,339.9,0.00,18.9,23.9,"22:40:02",1
"18/09/17","23:00",0.0,20.4,90.9,1010.0,331.0,2.0,2.8,338.6,0.00,18.9,23.9,"22:53:52",1
"18/09/17","23:10",0.0,20.3,90.8,1010.0,327.9,1.5,2.0,318.0,0.00,18.8,24.0,"23:00:48",1
"18/09/17","23:20",0.0,20.3,91.5,1010.0,327.6,1.5,2.7,333.3,0.00,18.9,23.8,"23:10:02",1
"18/09/17","23:30",0.0,20.4,91.4,1010.0,326.9,1.8,2.5,335.5,0.00,19.0,24.0,"23:20:08",1
"18/09/17","23:40",0.0,20.6,91.6,1010.2,322.6,1.7,3.9,333.6,0.00,19.2,23.9,"23:37:52",1
"18/09/17","23:50",0.0,20.6,91.2,1010.0,334.5,1.7,2.6,338.0,0.00,19.2,23.8,"23:41:28",1
"18/09/17","24:00",0.0,20.6,91.3,1010.0,350.5,1.2,1.8,345.7,0.00,19.2,23.6,"23:50:08",1
